Location: Molino di Ancona
(43.6167°N, 13.3667°E)
Time: 22:36:17
(UTC+00:00)

Cosmos 371 Rocket - Pass Details

Date: 15 December 2019
Orbit: 683 x 700 km, 74.0° (Epoch: 18 January)

Event Time Altitude Azimuth Distance (km) Brightness Sun altitude
Rises 04:28:11 0° 201° (SSW) 3,047 6.5 -21.6°
Reaches altitude 10° 04:30:28 10° 202° (SSW) 2,137 5.7 -21.2°
Maximum altitude 04:35:17 82° 290° (WNW) 706 3.1 -20.4°
Drops below altitude 10° 04:40:11 10° 19° (NNE) 2,163 5.9 -19.5°
Sets 04:42:31 0° 20° (NNE) 3,087 6.7 -19.1°
